Location: Unspecified
(0.0000°N, 0.0000°E)
Time: 09:57:38
(UTC+00:00)

ITUPSAT 1 - Pass Details

Date: 09 December 2017
Orbit: 701 x 714 km, 98.6° (Epoch: 18 July)

Event Time Altitude Azimuth Distance (km) Brightness Sun altitude
Rises 03:33:22 0° 182° (S) 3,104 ? -31.7°
Reaches altitude 10° 03:35:45 10° 189° (S) 2,181 ? -31.1°
Enters shadow 03:36:19 13° 192° (SSW) 1,975 ? -31.0°
